Hourly Weather Roundup
Issued by NWS Central Illinois

Home | Current Version | Previous Version | Text Only | Print | Product List | Glossary On
Versions: 1 2 3 4 5 6 7 8 9 10 11 12 13 14 15 16 17 18 19 20 21 22 23 24 25 26 27 28 29 30 31 32 33 34 35 36 37 38 39 40 41 42 43 44 45 46 47 48 49 50
874
NZUS43 KILX 210410
HWRILX

Area Weather Roundup
National Weather Service Lincoln IL
1100 PM CDT THU JUL 20 2017

NOTE:  "FAIR" indicates few or no clouds below 12,000 feet, with
       no sigificant weather and/or obstructions to visibility.


CITY           SKY/WX    TMP DP  RH WIND       PRES   REMARKS
Bloomington    CLOUDY    81  79  94 E8        29.98R HX  90
Champaign      CLEAR     79  75  89 S6        29.97  HX  82
Danville       CLOUDY    79  77  94 CALM      29.95S HX  84
Decatur        CLOUDY    81  74  79 SW7       29.97R HX  86
Effingham      CLOUDY    83  74  74 S5        29.99F HX  89
Flora          CLEAR     79  74  86 S5        29.99S HX  82
Galesburg      LGT RAIN  81  78  90 NE7       29.96S HX  89
Jacksonville   CLOUDY    83  74  75 CALM      29.95S HX  89
Lacon          CLOUDY    81  78  92 SE3       29.95S HX  89
Lawrenceville  PTCLDY    79  75  87 SW3       29.99S HX  83
Litchfield     CLEAR     78  74  88 S5        29.98R HX  80
$$


CITY           SKY/WX    TMP DP  RH WIND       PRES   REMARKS
Lincoln        CLOUDY    85  80  86 CALM      29.95S HX  99
Macomb         CLOUDY    82  77  83 NW7       29.97F HX  90
Mattoon        CLEAR     82  74  76 S3        29.97S HX  88
Mt Carmel AP   CLEAR     78  73  85 CALM      29.99F HX  81
Olney-Noble AP CLEAR     79  77  94 CALM      30.00R HX  83
Paris AP       CLEAR     76  75  96 S3        29.98S
Peoria         CLOUDY    85  80  85 E6        29.95R HX  99
Pontiac        MOCLDY    79  79  98 CALM      29.97S FOG     HX  85
Rantoul        CLOUDY    84  80  88 NE3       29.97S HX  96
Robinson       CLOUDY    77  74  91 S6        29.99S
Springfield    CLOUDY    82  78  88 SW5       29.95R HX  91
Taylorville    CLEAR     81  75  81 SW7       29.97R HX  87
$$

...REGIONAL REPORTS...


CITY           SKY/WX    TMP DP  RH WIND       PRES   REMARKS
Chicago O`Hare PTCLDY    76  69  79 CALM      29.97S
Kankakee       CLOUDY    77  75  94 CALM      29.97R
Moline         TSTM      73  68  84 E15       29.93F
Mount Sterling CLOUDY    82  74  77 SW6       29.95S HX  88
Mount Vernon   CLOUDY    77  75  93 CALM      29.99S
Pittsfield     CLEAR     83  75  76 SW3       29.97S HX  90
Quincy         CLEAR     83  75  77 S5        29.95S HX  90
Rockford       PTCLDY    80  74  81 NE3       29.98R HX  85
$$


CITY           SKY/WX    TMP DP  RH WIND       PRES   REMARKS
Burlington     CLOUDY    80  69  69 NE6       29.95F HX  83
Cedar Rapids   TSTM      75  72  90 S15G24    29.97R FOG
Des Moines     TSTM      78  72  81 NE12      29.93S HX  80
Kirksville     CLEAR     82  77  84 SW5       29.96S HX  90
Ottumwa        CLOUDY    83  70  64 SE8       29.93F HX  87
St Louis       CLEAR     91  73  55 CALM      29.97S HX  99
$$


CITY           SKY/WX    TMP DP  RH WIND       PRES   REMARKS
Terre Haute    CLEAR     82  73  74 S5        29.98S HX  87
Evansville     PTCLDY    83  73  72 S5        30.01S HX  89
Indianapolis   MOCLDY    82  76  81 SW10      29.98S HX  89
Lafayette      MOCLDY    80  79  96 NE5       29.95S HX  88
Madison        CLEAR     71  68  90 CALM      29.99R
Milwaukee      PTCLDY    76  70  82 W5        29.98R
$$






USA.gov is the U.S. government's official web portal to all federal, state and local government web resources and services.